Terminal Aerodrome Forecast
Issued by NWS

Home | Current Version | Previous Version | Text Only | Print | Product List | Glossary On
Versions: 1 2 3 4 5 6 7 8 9 10 11 12 13
000
FTUS42 TJSJ 191720
TAFKPK
TAF
TKPK 191720Z 1918/2018 06010KT P6SM FEW018 SCT025
     FM192200 04005KT P6SM FEW018
     FM201400 06007KT P6SM FEW022
      AMD NOT SKED 2002/2011=

USA.gov is the U.S. government's official web portal to all federal, state and local government web resources and services.